Location: The Saddle
(36.8333°N, 80.3417°W)
Time: 07:29:21
(UTC-04:00)

A-11 Canister half - Pass Details

Date: 29 May 2024
Orbit: 1515 x 1685 km, 47.2° (Epoch: 17 June)

Event Time Altitude Azimuth Distance (km) Brightness Sun altitude
Exits shadow 00:28:54 54° 131° (SE) 1,877 9.0 -30.3°
Drops below altitude 10° 00:37:45 10° 63° (ENE) 3,740 11.2 -30.7°
Sets 00:40:51 0° 59° (ENE) 4,707 11.8 -30.8°
